{"data":{"norad_id":62919,"epoch":"2026-09-21T22:57:34.773408Z","epoch_age_seconds":42415,"freshness":"FRESH","line1":"1 62919U 25027N   26264.95665247  .00194837  00000+0  14783-2 0  9993","line2":"2 62919  42.9987 244.2868 0003459 285.6649  74.3837 15.70969343 94027","mean_motion":15.70969343,"eccentricity":0.0003459,"inclination_deg":42.9987,"raan_deg":244.2868,"arg_perigee_deg":285.6649,"mean_anomaly_deg":74.3837,"bstar":0.0014783,"rev_number":9402,"period_min":91.663150933939,"perigee_km":353.79601906811,"apogee_km":358.45478179672,"semimajor_km":6734.2624004324,"source":"CELESTRAK","updated_at":"2026-09-22T09:00:49.708921Z"}}